Location: Chochol
(49.7771°N, 14.9780°E)
Time: 04:12:44
(UTC+00:00)

Cosmos 968 Rocket - Pass Details

Date: 09 April 2020
Orbit: 741 x 771 km, 74.0° (Epoch: 06 June)

Event Time Altitude Azimuth Distance (km) Brightness Sun altitude
Exits shadow 22:25:32 49° 351° (N) 984 4.3 -31.7°
Drops below altitude 10° 22:29:35 10° 19° (NNE) 2,320 6.7 -31.8°
Sets 22:32:01 0° 23° (NNE) 3,253 7.6 -31.8°
